Flag for Germany Weather past 2 weeks in Ganderkesee, Lower Saxony, Germany

Now
43 °F

Passing clouds.


Feels Like: 34 °F
Forecast: 39 / 47 °F
Wind: 18 mph from West

Location: Bremen Airport

Current Time: Mar 30, 2015 at 4:04:11 AM

Latest Report: Mar 30, 2015 at 3:20 AM


Visibility: N/A

Pressure: 29.24 "Hg

Humidity: 87%

Dew point: 39 °F

Location of GanderkeseeLocation

Historic Weather in Ganderkesee — Graph

°F

Ganderkesee temperature yesterday

Maximum temperature yesterday: 52 °F (at 1:50 AM)
Minimum temperature yesterday: 41 °F (at 10:50 PM)
Average temperature yesterday: 49 °F

Past Weeks' High & Low Weather Summary

 TemperatureHumidityPressure
High61 °F (Mar 17, 3:50 PM)100% (Mar 19, 12:20 AM)30.45 "Hg (Mar 19, 12:20 AM)
Low28 °F (Mar 23, 5:20 AM)29% (Mar 19, 2:50 PM)29.00 "Hg (Mar 29, 8:20 PM)
Average44 °F79%30.04 "Hg
* Reported Mar 15 1:20 AM — Mar 30 2:50 AM, Ganderkesee, Weather by CustomWeather, © 2015

Note: Actual official high and low records may vary slightly from our data, if they occured in-between our weather recording intervals... More about our weather records

Advertising

Ganderkesee weather history for previous 24 hours

 ConditionsComfort  
Time TempWeatherWind HumidityBarometerVisibility
2:50 AM
Mon, Mar 30
43 °FPassing clouds.21 mph81%29.24 "HgN/A
2:20 AM43 °FPassing clouds.29 mph87%29.21 "HgN/A
1:50 AM43 °FPassing clouds.25 mph81%29.21 "HgN/A
1:20 AM43 °FSprinkles. Passing clouds.25 mph87%29.18 "HgN/A
12:50 AM43 °FSprinkles. Passing clouds.23 mph87%29.18 "HgN/A
12:20 AM43 °FPassing clouds.25 mph93%29.18 "HgN/A
11:50 PM
Sun, Mar 29
43 °FSprinkles. Passing clouds.24 mph87%29.15 "HgN/A
11:20 PM41 °FSprinkles. Passing clouds.25 mph93%29.15 "HgN/A
10:50 PM41 °FSprinkles. Passing clouds.36 mph93%29.12 "HgN/A
10:20 PM45 °FRain showers. Passing clouds.39 mph87%29.03 "Hg4 mi
9:50 PM48 °FSprinkles. Partly cloudy.26 mph87%29.00 "Hg4 mi
9:20 PM50 °FLight rain. Passing clouds.26 mph82%29.00 "HgN/A
8:50 PM52 °FLight rain. Partly sunny.26 mph88%29.00 "HgN/A
8:20 PM50 °FLight rain. Mostly cloudy.21 mph94%29.00 "HgN/A
7:50 PM50 °FLight rain. Mostly cloudy.12 mph94%29.03 "Hg5 mi
7:20 PM48 °FRain. Mostly cloudy.16 mph100%29.06 "Hg5 mi
6:50 PM48 °FRain. Mostly cloudy.14 mph100%29.09 "Hg5 mi
6:20 PM48 °FLight rain. Broken clouds.13 mph94%29.12 "HgN/A
5:50 PM48 °FDrizzle. Broken clouds.9 mph94%29.18 "HgN/A
5:20 PM48 °FDrizzle. Partly sunny.10 mph94%29.21 "HgN/A
4:50 PM48 °FDrizzle. Partly sunny.14 mph94%29.24 "HgN/A
4:20 PM48 °FDrizzle. Partly sunny.12 mph94%29.27 "HgN/A
3:50 PM48 °FDrizzle. Partly sunny.14 mph94%29.30 "HgN/A
3:20 PM48 °FDrizzle. Partly sunny.16 mph94%29.33 "HgN/A
2:50 PM48 °FDrizzle. Partly sunny.10 mph94%29.36 "HgN/A
2:20 PM46 °FDrizzle. Partly sunny.8 mph93%29.39 "HgN/A
1:50 PM48 °FDrizzle. Partly sunny.14 mph87%29.42 "HgN/A
1:20 PM48 °FDrizzle. Broken clouds.17 mph87%29.42 "Hg4 mi
12:50 PM48 °FDrizzle. Broken clouds.13 mph94%29.45 "Hg5 mi
12:20 PM48 °FDrizzle. Broken clouds.17 mph87%29.45 "HgN/A
11:50 AM50 °FSprinkles. Partly sunny.15 mph88%29.47 "HgN/A
11:20 AM48 °FDrizzle. Partly sunny.16 mph94%29.47 "HgN/A
10:50 AM50 °FPartly sunny.20 mph88%29.47 "HgN/A
10:20 AM48 °FDrizzle. Partly sunny.17 mph94%29.50 "HgN/A
9:50 AM48 °FDrizzle. Partly sunny.16 mph100%29.50 "Hg2 mi
9:20 AM48 °FDrizzle. Partly sunny.18 mph94%29.50 "Hg3 mi
8:50 AM50 °FLight rain. Partly sunny.16 mph88%29.50 "HgN/A
8:20 AM50 °FPartly sunny.16 mph88%29.50 "HgN/A
7:50 AM48 °FLight rain. Passing clouds.16 mph94%29.53 "HgN/A
7:20 AM48 °FLight rain. Passing clouds.17 mph100%29.53 "HgN/A
6:50 AM50 °FPassing clouds.20 mph94%29.53 "Hg4 mi
6:20 AM50 °FLight rain. Passing clouds.22 mph94%29.53 "Hg5 mi
5:50 AM52 °FLight rain. Passing clouds.20 mph82%29.53 "HgN/A
5:20 AM52 °FPassing clouds.18 mph88%29.53 "HgN/A
4:50 AM52 °FPartly cloudy.18 mph88%29.53 "HgN/A
4:20 AM52 °FLight rain. Partly cloudy.15 mph88%29.53 "HgN/A
Weather by CustomWeather, © 2015

See weather overviewHow to use our weather pages